Regional Weather Roundup
Issued by NWS

Home | Current Version | Previous Version | Text Only | Print | Product List | Glossary On
Versions: 1 2 3 4 5 6 7 8 9 10 11 12 13 14 15 16 17 18 19 20 21 22 23 24 25 26 27 28 29 30 31 32 33 34 35 36 37 38 39 40 41 42 43 44 45 46 47 48 49 50
000
ASUS45 KTFX 211019
RWRMT
MONTANA HOURLY WEATHER ROUNDUP
NATIONAL WEATHER SERVICE GREAT FALLS MT
419 AM MDT MON APR 21 2014

NOTE: "FAIR" INDICATES FEW OR NO CLOUDS BELOW 12000 FEET WITH NO
SIGNIFICANT WEATHER AND/OR OBSTRUCTIONS TO VISIBILITY.

* THESE STATIONS ARE NOT UNDER NWS QUALITY CONTROL. THEY DO NOT
   REPORT WEATHER SUCH AS PRECIPITATION OR FOG.

MTZ001>007-043-211100-
WEST OF THE DIVIDE
CITY           SKY/WX    TMP DP  RH WIND       PRES   REMARKS
KALISPELL      CLEAR     27  25  92 NE3       30.23S
MISSOULA       PTCLDY    36  25  64 E3        30.27S
BUTTE          PTCLDY    28  19  69 S3        30.28S
MULLAN PASS    PTCLDY    36  21  54 S5        30.19F WCI  32
* ESSEX        N/A       29  25  85 N/A        N/A
* LINCOLN      N/A       25  20  81 NW1        N/A
* LOOKOUT PASS N/A       30  24  78 S1         N/A
* PLAINS APT   PTCLDY    30  21  69 CALM      30.23S
* POLSON       N/A       35  20  54 N/A        N/A
* RONAN APT    CLEAR     32  27  82 N/A        N/A
* SEELEY LAKE  N/A       25  22  88 N/A        N/A
* THOMP F APT  PTCLDY    35  15  44 N1G7       N/A
* YAAK HILL    N/A       31  26  82 E2         N/A
$$

MTZ008-052>055-211100-
SOUTHWEST MONTANA
CITY           SKY/WX    TMP DP  RH WIND       PRES   REMARKS
BOZEMAN        PTCLDY    27  19  72 SE9       30.26R WCI  18
DILLON         MOCLDY    34  14  44 CALM      30.25S
W YELLOWSTONE  N/A       26  21  81 N/A        N/A
* THREE FORKS  MOCLDY    30  19  64 N/A        N/A
* BOULDER HILL N/A       41  15  35 S12        N/A
* MONIDA PASS  N/A       29  14  53 W4         N/A
* RAYNOLDS PAS N/A       31  15  51 S6         N/A   WCI  25
* WHITEHALL    N/A       35  15  44 NW1        N/A
* WISE RIVER   N/A       28  21  75 SW1G6      N/A
$$

MTZ009>010-012-014-046-048-049-054-211100-
EAST SLOPES AND CENTRAL MONTANA
CITY           SKY/WX    TMP DP  RH WIND       PRES   REMARKS
CUT BANK       CLEAR     37  19  48 W9        30.18R WCI  30
GREAT FALLS    PTCLDY    30  19  64 SW9       30.19S WCI  22
HELENA         MOCLDY    37  19  48 W5        30.24R WCI  33
MALMSTROM AFB  MOCLDY    32  19  59 S7        30.17S WCI  25
* CONRAD       CLEAR     25  18  75 N/A        N/A
* DEARBORN     N/A       39  22  51 S6         N/A   WCI  35
* EAST GLACIER N/A       35  19  52 W6         N/A   WCI  30
* MONARCH      N/A       32  10  40 SW2        N/A
* PENDROY      N/A       36  16  44 W4         N/A
* ROGERS PASS  N/A       38  16  41 SE12G19    N/A   WCI  30
* SAINT MARY   N/A       40  17  39 S7G19      N/A   WCI  35
* SWEET GRASS  N/A       40  20  45 W7         N/A   WCI  35
* WHITE SULPH  N/A       32  16  52 NE7        N/A   WCI  25
$$

MTZ011-013-016-021-035-040-045-047-050-051-211100-
NORTH CENTRAL MONTANA
CITY           SKY/WX    TMP DP  RH WIND       PRES   REMARKS
HAVRE          PTCLDY    30  23  75 N3        30.18R
LEWISTOWN      MOCLDY    32  21  64 S6        30.22R WCI  26
* CHINOOK      PTCLDY    30  21  69 CALM      30.19R
* FORT BENTON  PTCLDY    34  21  59 SW5       30.21R WCI  29
* CHESTER      N/A       32  22  67 N/A        N/A
* DENTON       N/A       34  22  61 SW2G8      N/A
* GEYSER       N/A       27  17  66 S9         N/A   WCI  18
* JUDITH GAP   N/A       37  17  44 N/A        N/A
* LOMA         N/A       37  22  55 W6         N/A   WCI  32
$$

MTZ017>020-022>027-061-062-211100-
NORTHEAST MONTANA
CITY           SKY/WX    TMP DP  RH WIND       PRES   REMARKS
GLASGOW        CLOUDY    37  27  67 CALM      30.16R
GLENDIVE       PTCLDY    37  25  62 NW7       30.18R WCI  32
JORDAN         PTCLDY    34  21  59 W9        30.18R WCI  27
SIDNEY         PTCLDY    36  28  73 W6        30.18R WCI  31
WOLF POINT     MOCLDY    34  27  76 CALM      30.18R
* BEAVER HILL  N/A       40  26  57 W3         N/A
* CIRCLE       N/A       36  27  70 N/A        N/A
* LINDSAY DVD  N/A       36  25  64 NW6        N/A   WCI  31
* NAVAJO       N/A       35  34  96 N4         N/A
* SCOBEY APT   PTCLDY    32  28  85 CALM      30.13R
$$

MTZ028>042-056>058-211100-
SOUTHCENTRAL AND SOUTHEAST MONTANA
CITY           SKY/WX    TMP DP  RH WIND       PRES   REMARKS
BAKER          CLEAR     32  23  69 CALM      30.18R
BILLINGS       PTCLDY    43  19  38 SW10      30.22R
LIVINGSTON     PTCLDY    30  19  64 S3        30.24S
MILES CITY     PTCLDY    36  25  64 NW3       30.18R
* EKALAKA APT  CLEAR     39  19  45 SE5       30.15R WCI  35
* LAUREL APT   PTCLDY    36  16  44 SW5        N/A   WCI  32
* ROUNDUP APT  PTCLDY    34  18  52 N/A        N/A
* HYSHAM       N/A       42  17  36 W6         N/A
* LAME DEER    N/A       44  15  31 SW4        N/A
* REED POINT   N/A       31  24  75 N1         N/A
* ROSCOE HILL  N/A       40  10  29 SW8        N/A   WCI  35
$$

REGIONAL REPORTS...DAKOTAS
CITY           SKY/WX    TMP DP  RH WIND       PRES   REMARKS
WILLISTON      PTCLDY    37  34  89 NW8       30.13R WCI  31
DICKINSON      PTCLDY    34  25  70 NW10      30.12R WCI  26
CROSBY         PTCLDY    36  36 100 NW9       30.14R WCI  29
TIOGA          CLOUDY    39  39 100 N16G22    30.13R WCI  30
WATFORD CITY   CLEAR     36  32  85 W7        30.13R WCI  30
BISMARCK       CLEAR     43  30  60 NW9       30.09R
GRAND FORKS    CLEAR     45  36  71 W16       29.93R
FARGO          CLEAR     45  34  65 W10       29.97R
BUFFALO SD     CLEAR     39  21  48 W8        30.12R WCI  33
RAPID CITY     CLEAR     36  21  54 NW9       30.20R WCI  29
$$

REGIONAL REPORTS...WYOMING/IDAHO/WASHINGTON
CITY           SKY/WX    TMP DP  RH WIND       PRES   REMARKS
GILLETTE       CLEAR     30  21  69 S6        30.22S WCI  24
SHERIDAN       PTCLDY    34  21  59 CALM      30.22R
CODY           MOCLDY    43  21  42 SW3       30.24S
YELLOWSTONE LA MOCLDY    21  18  88 CALM      30.33S
SALMON         PTCLDY    32  21  64 S3        30.27R
MULLAN PASS    PTCLDY    36  21  54 S5        30.19S WCI  32
SAND POINT     CLEAR     34  32  92 N5        30.20F WCI  29
SPOKANE        PTCLDY    39  30  70 NE7       30.15F WCI  34
$$

REGIONAL REPORTS...ALBERTA
CITY           SKY/WX    TMP DP  RH WIND       PRES   REMARKS
CALGARY        PTCLDY    43  16  34 CALM      30.09S
LETHBRIDGE     CLEAR     36  25  64 SW10      30.14R WCI  29
MEDICINE HAT   CLEAR     37  28  70 SW8       30.13S WCI  31
EDMONTON       N/A       28  25  89 S6        30.05R WCI  21
WATERTON GATE  N/A       39  19  45 SW10G17    N/A   WCI  32
CARDSTON       N/A       30  21  69 S3         N/A
MILK RIVER     N/A       28  21  75 N5         N/A   WCI  22
$$

REGIONAL REPORTS...SASKATCHEWAN
CITY           SKY/WX    TMP DP  RH WIND       PRES   REMARKS
SWIFT CURRENT  CLEAR     30  30 100 SW12      30.13R WCI  20
REGINA         CLOUDY    34  34 100 SW5       30.16R WCI  29
VAL MARIE      N/A       19  18  96 SW5        N/A   WCI  12
ASSINIBOIA     N/A       34  32  92 NW5        N/A   WCI  29
CORONACH       N/A       36  34  92 NW8        N/A   WCI  30

$$




USA.gov is the U.S. government's official web portal to all federal, state and local government web resources and services.